Weather Roundup
Issued by NWS

Home | Current Version | Previous Version | Graphics & Text | Print | Product List | Glossary Off
Versions: 1 2 3 4 5 6 7 8 9 10 11 12 13 14 15 16 17 18 19 20 21 22 23 24 25 26 27 28 29 30 31 32 33 34 35 36 37 38 39 40 41 42 43 44 45 46 47 48 49 50

000
NZUS93 KARX 042259
HRRWXR

CURRENT HOURLY OBSERVATIONS ACROSS
MUCH OF THE UPPER MISSISSIPPI VALLEY
NATIONAL WEATHER SERVICE LA CROSSE WI
500 PM CST SUN DEC 04 2016


...SOUTHEAST MINNESOTA...


CITY           SKY/WX    TMP DP  RH WIND       PRES   REMARKS
ROCHESTER      CLOUDY    33  32  96 S10       29.80S WCI  25
ROCHESTER/MAYO CLOUDY    33  33  99 S9        29.80S WCI  26
WINONA         CLOUDY    36  32  87 W3        29.83R
AUSTIN         NOT AVBL
ALBERT LEA     CLOUDY    39  37  93 SW7       29.80R WCI  34
DODGE CENTER   CLOUDY    34  32  93 S10       29.78S WCI  26
PRESTON        CLOUDY    32  30  92 SW7       29.82S WCI  26
OWATONNA       PTCLDY    36  32  87 S8        29.78S WCI  29
FARIBAULT      MOCLDY    36  34  93 S5        29.78R WCI  32
$$

...ELSEWHERE IN MINNESOTA...


CITY           SKY/WX    TMP DP  RH WIND       PRES   REMARKS
MINNEAPOLIS    CLOUDY    37  32  82 SW9       29.75F WCI  30
INTNL FALLS    CLOUDY    31  28  89 SE8       29.64F WCI  23
DULUTH         LGT SNOW  31  30  96 S7        29.68F FOG     WCI  24
RED WING       CLOUDY    36  32  87 SW7       29.78R WCI  30
REDWOOD FALLS  CLEAR     38  30  73 W13       29.77R WCI  30
MANKATO        MOCLDY    38  35  89 SW9       29.78R WCI  31
WORTHINGTON    CLEAR     37  32  82 SW12      29.80R WCI  29
FAIRMONT       CLEAR     40  33  76 W8        29.81R WCI  34
$$

...SOUTHWEST WISCONSIN...


CITY           SKY/WX    TMP DP  RH WIND       PRES   REMARKS
LA CROSSE      CLOUDY    35  33  92 S7        29.84S WCI  29
PRAIRIE DU CHI CLOUDY    33  31  94 S6        29.88R FOG     WCI  27
BOSCOBEL       CLOUDY    34  31  88 SW5       29.89R FOG     WCI  30
LONE ROCK      NOT AVBL
PLATTEVILLE    CLOUDY    32  32 100 S8        29.88R WCI  24
FORT MC COY    CLOUDY    32  31  97 S6        29.85R FOG     WCI  26
CAMP DOUGLAS   MIX PCPN  32  30  93 S9        29.83F WCI  24
MAUSTON-NEW LI CLOUDY    32  30  93 S5        29.84F FOG     WCI  27
VIROQUA        CLOUDY    32  32 100 SW6       29.83S WCI  26
WIS DELLS      LGT SNOW  30  29  95 S8        29.85F WCI  23
$$

...ELSEWHERE IN WISCONSIN...


CITY           SKY/WX    TMP DP  RH WIND       PRES   REMARKS
MILWAUKEE      LGT SNOW  34  31  88 SW6       29.89S FOG     WCI  29
MADISON        LGT SNOW  31  29  92 S10       29.87S FOG     WCI  22
GREEN BAY      LGT SNOW  33  32  96 SE6       29.87F VSB 1   WCI  28
EAU CLAIRE     NOT AVBL
BLACK RVR FLS  CLOUDY    32  32 100 CALM      29.82S FOG
MEDFORD        CLOUDY    29  27  92 S13       29.77F WCI  19
WAUSAU         LGT SNOW  29  28  96 S8        29.80S FOG     WCI  21
WIS RAPIDS     LGT SNOW  31  30  96 S7        29.83F FOG     WCI  24
MARSHFIELD     CLOUDY    30  28  92 S12       29.79F FOG     WCI  20
RICE LAKE      CLOUDY    32  32  99 S8        29.76S FOG     WCI  25
$$

...NORTHEAST IOWA...


CITY           SKY/WX    TMP DP  RH WIND       PRES   REMARKS
WATERLOO       CLOUDY    33  30  88 W8        29.87S WCI  26
DUBUQUE        CLOUDY    31  30  96 S10       29.88R FOG     WCI  22
DECORAH        CLOUDY    34  32  93 VRB6      29.84R WCI  29
MASON CITY     CLOUDY    34  31  88 SW9       29.85S WCI  27
CHARLES CITY   CLOUDY    34  32  93 SW8       29.85F WCI  27
OELWEIN        CLOUDY    34  32  93 SW9       29.87S WCI  26
$$

...ELSEWHERE IN IOWA...


CITY           SKY/WX    TMP DP  RH WIND       PRES   REMARKS
DES MOINES     PTCLDY    36  33  89 W8        29.90F FOG     WCI  30
IOWA CITY      CLOUDY    34  32  92 SW6       29.93S WCI  29
FORT DODGE     CLEAR     34  30  86 SW6       29.86R WCI  29
MARSHALLTOWN   CLOUDY    33  31  92 W12       29.88S WCI  24
CEDAR RAPIDS   CLOUDY    32  32 100 SW7       29.89S FOG     WCI  26
$$

...NORTHERN ILLINOIS...


CITY           SKY/WX    TMP DP  RH WIND       PRES   REMARKS
CHICAGO-OHARE  SNOW      32  32 100 CALM      29.90F VSB 1/2
CHICAGO-MIDWAY LGT SNOW  33  30  88 NW6       29.91R VSB 1   WCI  28
MOLINE         CLOUDY    34  31  88 CALM      29.91F FOG
ROCKFORD       LGT SNOW  31  29  92 S3        29.92S VSB 3/4
PEORIA         CLOUDY    33  32  96 CALM      29.93R FOG
$$

NOTE: "FAIR" INDICATES FEW OR NO CLOUDS BELOW 12,000 FEET WITH NO
SIGNIFICANT WEATHER AND/OR OBSTRUCTIONS TO VISIBILITY. WIND
SPEEDS ARE IN MILES-PER-HOUR.




USA.gov is the U.S. government's official web portal to all federal, state and local government web resources and services.